Regional Weather Roundup
Issued by NWS

Home | Current Version | Previous Version | Graphics & Text | Print | Product List | Glossary On
Versions: 1 2 3 4 5 6 7 8 9 10 11 12 13 14 15 16 17 18 19 20 21 22 23 24 25 26 27 28 29 30 31 32 33 34 35 36 37 38 39 40 41 42 43 44 45 46 47 48 49 50
000
ASUS43 KFSD 221202
RWRSD

WEATHER ROUNDUP FOR SOUTH DAKOTA
NATIONAL WEATHER SERVICE SIOUX FALLS SD
700 AM CDT TUE APR 22 2014

NOTE: "FAIR" INDICATES FEW OR NO CLOUDS BELOW 12,000 FEET WITH NO
SIGNIFICANT WEATHER AND/OR OBSTRUCTIONS TO VISIBILITY.


SDZ001>005-009-010-012>017-221300-
NORTHWEST AND NORTH CENTRAL SOUTH DAKOTA

CITY           SKY/WX    TMP DP  RH WIND       PRES   REMARKS
FAITH            N/A     43  30  60 SE21      29.95F
MOBRIDGE       PTCLDY    37  29  72 E8        30.05S
$$

SDZ012>016-024>037-041>051-057-063-072>074-221300-
SOUTHWEST AND SOUTH CENTRAL SOUTH DAKOTA

CITY           SKY/WX    TMP DP  RH WIND       PRES   REMARKS
RAPID CTY ARPT PTCLDY    35  28  75 SE6       29.92F
PIERRE         CLEAR     36  31  82 E9        30.05F
CUSTER         PTCLDY    35  23  61 NW5       29.96F
ELLSWORTH AFB  PTCLDY    40  28  64 S13       29.91F
PHILIP         PTCLDY    43  30  60 E9        29.98F
PINE RIDGE     PTCLDY    53  26  35 S28G41    29.92F
WINNER         FAIR      45  30  55 SE7       30.06F
$$

SDZ004>011-016>023-039-040-221300-
NORTHEAST SOUTH DAKOTA

CITY           SKY/WX    TMP DP  RH WIND       PRES   REMARKS
ABERDEEN       CLEAR     25  24  96 SE6       30.13F WCI  18
WATERTOWN      CLEAR     30  27  88 CALM      30.13S
SISSETON         N/A     32  29  88 SW3       30.13R
$$

SDZ017-020-022-023-036>040-048>070-221300-
SOUTHEAST SOUTH DAKOTA

CITY           SKY/WX    TMP DP  RH WIND       PRES   REMARKS
SIOUX FALLS    PTCLDY    29  26  89 CALM      30.15S
HURON          CLEAR     34  29  82 SE5       30.13S WCI  30
CHAMBERLAIN      N/A     37  31  78 SE8       30.09F
MITCHELL       CLEAR     32  29  88 E6        30.14S WCI  26
YANKTON        CLEAR     36  28  75 CALM      30.17R
$$

ABBREVIATIONS USED IN REMARKS
   TC - TEMPERATURE IN CELSIUS
  WCI - WIND CHILL INDEX
   HX - HEAT INDEX
  VSB - VISIBILITY




USA.gov is the U.S. government's official web portal to all federal, state and local government web resources and services.